Regional Weather Roundup
Issued by NWS

Home | Current Version | Previous Version | Text Only | Print | Product List | Glossary On
Versions: 1 2 3 4 5 6 7 8 9 10 11 12 13 14 15 16 17 18 19 20 21 22 23 24 25 26 27 28 29 30 31 32 33 34 35 36 37 38 39 40 41 42 43 44 45 46 47 48 49 50
000
ASUS43 KLOT 271109
RWRIL

ILLINOIS REGIONAL WEATHER ROUNDUP
NATIONAL WEATHER SERVICE CHICAGO/ROMEOVILLE IL
600 AM CDT TUE JUN 27 2017

NOTE: "FAIR" INDICATES FEW OR NO CLOUDS BELOW 12,000 FEET WITH NO
SIGNIFICANT WEATHER AND/OR OBSTRUCTIONS TO VISIBILITY.

* THESE STATIONS ARE NOT UNDER NWS QUALITY CONTROL. THEY ALSO MAY NOT
  REPORT WEATHER SUCH AS PRECIPITATION OR FOG.

ILZ001-002-007-009-015-016-024-271200-
NORTHWEST ILLINOIS

CITY           SKY/WX    TMP DP  RH WIND       PRES   REMARKS
MOLINE         CLEAR     48  44  86 SW5       30.15R
STERLING*      PTCLDY    49  47  93 CALM      30.14S
SAVANNA*       CLEAR     46  45  99 CALM      30.14R
$$

ILZ003-004-008-010-011-017-018-271200-
NORTH CENTRAL ILLINOIS

CITY           SKY/WX    TMP DP  RH WIND       PRES   REMARKS
ROCKFORD       PTCLDY    49  45  86 S3        30.14S
FREEPORT*      CLEAR     46  43  88 CALM      30.15R
ROCHELLE*      PTCLDY    46  44  95 CALM      30.14S
DE KALB*       CLEAR     52  46  78 W6        30.13S
PERU*          PTCLDY    50  47  88 W3        30.15R
$$

ILZ005-006-012>014-019>023-271200-
NORTHEAST ILLINOIS

CITY           SKY/WX    TMP DP  RH WIND       PRES   REMARKS
CHICAGO-OHARE  PTCLDY    52  46  80 W5        30.11R
CHICAGO-MIDWAY PTCLDY    55  47  74 SW5       30.12R
AURORA         PTCLDY    46  44  93 CALM      30.13S
LANSING*       CLEAR     47  44  89 CALM      30.13S
JOLIET*        CLEAR     48  47  98 CALM      30.14R
WAUKEGAN       CLEAR     52  48  86 VRB3      30.09S
DUPAGE AIRPORT PTCLDY    49  47  93 S3        30.12R
WHEELING       CLEAR     51  48  89 S3        30.12R
MORRIS*        CLEAR     49  45  84 CALM      30.13R
ROMEOVILLE*    CLEAR     50  45  83 W3        30.13R
NORTHERLY ISL    N/A     58  45  62 W5          N/A
$$

LMZ740>746-271200-
SOUTHERN LAKE MICHIGAN

STATION/POSITION SKY/WX   TEMP    WIND        PRES    VSBY  WAVE
                          AIR SEA DIR/SP/G                  HT/PER
                          (F)     (DEG/KT/KT) (MB)    (MI)  (FT/S)
SOUTHERN BUOY              59 61  290/ 10/ 12 1018.6          2/ 4
WILMETTE HARBOR            57 62  240/  6/  8   N/A           1/ 5
HARRISON CRIB              60     270/  6/  7   N/A
BURNHAM HARBOR             59                   N/A
CALUMET HARBOR             55     220/  3/  4 1019.3R
BURNS HARBOR               61     300/  7/  8 1020.0R
MICHIGAN CITY              60     280/  6/  8   N/A
MICHIGAN CITY 6N           61 65  300/  6/  8   N/A           3/ 5
ST. JOSEPH                 61 68  330/  4/  8 1019.4R         3/ 5
$$

ILZ025>027-034>036-040-047-049-050-058-095>099-271200-
WEST-CENTRAL ILLINOIS

CITY           SKY/WX    TMP DP  RH WIND       PRES   REMARKS
QUINCY         CLEAR     53  51  93 NE3       30.14S
GALESBURG*     CLEAR     45  45 100 CALM      30.16S
MACOMB*        CLEAR     46  45  97 CALM      30.18R
JACKSONVILLE*  CLEAR     48  47  95 CALM      30.15R
PITTSFIELD*    CLEAR     52  51  97 CALM      30.16R
$$

ILZ028>032-037-038-041>044-048-051>054-059>061-271200-
CENTRAL ILLINOIS

CITY           SKY/WX    TMP DP  RH WIND       PRES   REMARKS
PONTIAC        CLEAR     49  49  98 CALM      30.16R
BLOOMINGTON    PTCLDY    51  50  96 CALM      30.16R
DECATUR        CLEAR     52  49  89 CALM      30.15R
PEORIA         PTCLDY    50  48  93 CALM      30.15S
LACON*         PTCLDY    48  48 100 CALM      30.14S
LINCOLN*       FOG       51  51 100 CALM      30.16R VSB 3/4
SPRINGFIELD    PTCLDY    50  50 100 CALM      30.15S FOG
TAYLORVILLE    CLEAR     49  48  97 CALM      30.15S
$$

ILZ033-039-045-046-055>057-062-063-271200-
EAST-CENTRAL ILLINOIS

CITY           SKY/WX    TMP DP  RH WIND       PRES   REMARKS
CHAMPAIGN      CLEAR     48  45  89 NW3       30.15R
RANTOUL*       PTCLDY    50  49  97 CALM      30.15R
MATTOON        CLEAR     52  52 100 NW5       30.14R
PARIS*         PTCLDY    46  46 100 CALM      30.15S
$$

ILZ079-100>102-271200-
SOUTHWEST ILLINOIS

CITY           SKY/WX    TMP DP  RH WIND       PRES   REMARKS
ALTON          PTCLDY    50  50 100 CALM      30.16R FOG
BELLEVILLE     CLEAR     53  52  96 CALM      30.16R
CAHOKIA*       CLEAR     51  49  92 CALM      30.15R FOG
SPARTA*        CLEAR     55  54  96 W3        30.17R
$$

ILZ064>066-069>071-074>076-080>082-084>086-088>090-092>094-271200-
SOUTH-CENTRAL ILLINOIS

CITY           SKY/WX    TMP DP  RH WIND       PRES   REMARKS
CARBONDALE     CLEAR     55  55 100 CALM      30.15R
CAIRO*         MOCLDY    60  58  95 CALM      30.15R
EFFINGHAM*     PTCLDY    51  51 100 CALM      30.17S
MARION         CLEAR     55  55 100 CALM      30.16R
MT. VERNON     CLEAR     49  49 100 CALM      30.16R
CENTRALIA*     CLEAR     51  50  98 CALM      30.15R
SALEM*         PTCLDY    53  51  92 CALM      30.15S
METROPOLIS*    CLEAR     57  56  94 CALM      30.15R
$$

ILZ067-068-072-073-078-083-087-091-271200-
SOUTHEAST ILLINOIS

CITY           SKY/WX    TMP DP  RH WIND       PRES   REMARKS
LAWRENCEVILLE  CLEAR     54  53  97 CALM      30.15R
FLORA*         CLEAR     53  51  93 CALM      30.16R
FAIRFIELD*     CLEAR     52  51  98 CALM      30.15R
HARRISBURG*    CLEAR     54  53  96 CALM      30.15S
ROBINSON*      CLEAR     48  48  98 CALM      30.16R
CARMI*         CLEAR     54  53  98 CALM      30.15R
$$

ABBREVIATIONS USED IN REMARKS
   TC - TEMPERATURE IN CELSIUS
  WCI - WIND CHILL INDEX
   HX - HEAT INDEX
  VSB - VISIBILITY
$$




USA.gov is the U.S. government's official web portal to all federal, state and local government web resources and services.